When you browse on this site, cookies collect data to enhance your experience and personalize the content and advertising you see.
Visit our Privacy Policy to learn more. By continuing to use the site, you agree to this use of cookies and data.
  • In Slovakia
  • List of Countries
  • For 7 days
  • Water Temperature
  • Weather Map
  • Weather Widgets
  • user-avatar
    Login

    Hourly Weather Santa Fe

    Today, 14 November, Thursday

    Time Temperature Precipitation Wind Pressure Humidity
    00:00 +24°C° 0 mm 1 mps 754 mmHg 63%
    01:00 +24°C° 0 mm 1 mps 755 mmHg 65%
    02:00 +23°C° 0 mm 1 mps 755 mmHg 65%
    03:00 +23°C° 0 mm 1 mps 755 mmHg 66%
    04:00 +23°C° 0 mm 1 mps 755 mmHg 67%
    05:00 +22°C° 0 mm 1 mps 755 mmHg 69%
    06:00 +25°C° 0 mm 1 mps 756 mmHg 63%
    07:00 +27°C° 0 mm 1 mps 756 mmHg 57%
    08:00 +29°C° 0 mm 1 mps 757 mmHg 51%
    09:00 +31°C° 0 mm 2 mps 757 mmHg 45%
    10:00 +34°C° 0 mm 3 mps 757 mmHg 38%
    11:00 +36°C° 0 mm 4 mps 756 mmHg 32%
    12:00 +37°C° 0 mm 4 mps 756 mmHg 28%
    13:00 +38°C° 0 mm 4 mps 756 mmHg 24%
    14:00 +39°C° 0 mm 5 mps 755 mmHg 19%
    15:00 +37°C° 0 mm 4 mps 755 mmHg 21%
    16:00 +37°C° 0 mm 3 mps 754 mmHg 22%
    17:00 +36°C° 0 mm 3 mps 754 mmHg 23%
    18:00 +33°C° 0 mm 4 mps 755 mmHg 28%
    19:00 +30°C° 0 mm 4 mps 755 mmHg 32%
    20:00 +27°C° 0 mm 5 mps 756 mmHg 37%
    21:00 +26°C° 0 mm 5 mps 756 mmHg 41%
    22:00 +25°C° 0 mm 4 mps 757 mmHg 46%
    23:00 +23°C° 0 mm 4 mps 757 mmHg 51%

    Tomorrow, 15 November, Friday

    Time Temperature Precipitation Wind Pressure Humidity
    00:00 +22°C° 0 mm 4 mps 757 mmHg 54%
    01:00 +21°C° 0 mm 4 mps 757 mmHg 57%
    02:00 +20°C° 0 mm 4 mps 757 mmHg 60%
    03:00 +20°C° 0 mm 4 mps 757 mmHg 63%
    04:00 +19°C° 0 mm 3 mps 757 mmHg 66%
    05:00 +19°C° 0 mm 3 mps 757 mmHg 69%
    06:00 +21°C° 0 mm 4 mps 758 mmHg 62%
    07:00 +23°C° 0 mm 4 mps 758 mmHg 55%
    08:00 +26°C° 0 mm 5 mps 759 mmHg 48%
    09:00 +28°C° 0 mm 5 mps 758 mmHg 42%
    10:00 +30°C° 0 mm 5 mps 758 mmHg 36%
    11:00 +33°C° 0 mm 5 mps 758 mmHg 30%
    12:00 +33°C° 0 mm 5 mps 757 mmHg 31%
    13:00 +34°C° 0 mm 4 mps 757 mmHg 31%
    14:00 +35°C° 0 mm 4 mps 756 mmHg 31%
    15:00 +34°C° 0 mm 4 mps 755 mmHg 34%
    16:00 +33°C° 0 mm 4 mps 755 mmHg 36%
    17:00 +33°C° 0 mm 4 mps 754 mmHg 38%
    18:00 +30°C° 0 mm 4 mps 755 mmHg 43%
    19:00 +28°C° 0 mm 5 mps 755 mmHg 47%
    20:00 +26°C° 0 mm 5 mps 755 mmHg 51%
    21:00 +25°C° 0 mm 5 mps 756 mmHg 53%
    22:00 +25°C° 0 mm 4 mps 756 mmHg 55%
    23:00 +23°C° 0 mm 4 mps 756 mmHg 57%

    Day after tomorrow, 16 November, Saturday

    Time Temperature Precipitation Wind Pressure Humidity
    00:00 +22°C° 0 mm 4 mps 756 mmHg 61%
    01:00 +21°C° 0 mm 3 mps 756 mmHg 65%
    02:00 +20°C° 0 mm 2 mps 755 mmHg 68%
    03:00 +20°C° 0 mm 2 mps 756 mmHg 69%
    04:00 +19°C° 0 mm 3 mps 756 mmHg 71%
    05:00 +19°C° 0 mm 3 mps 756 mmHg 72%
    06:00 +20°C° 0 mm 3 mps 756 mmHg 65%
    07:00 +22°C° 0 mm 4 mps 756 mmHg 59%
    08:00 +25°C° 0 mm 4 mps 756 mmHg 53%
    09:00 +26°C° 0 mm 3 mps 756 mmHg 50%
    10:00 +27°C° 0 mm 3 mps 756 mmHg 48%
    11:00 +28°C° 0 mm 2 mps 756 mmHg 45%
    12:00 +28°C° 0 mm 3 mps 756 mmHg 45%
    13:00 +28°C° 0 mm 4 mps 756 mmHg 45%
    14:00 +28°C° 0 mm 5 mps 755 mmHg 45%
    15:00 +27°C° 0 mm 6 mps 755 mmHg 49%
    16:00 +27°C° 0 mm 7 mps 755 mmHg 53%
    17:00 +26°C° 0 mm 7 mps 754 mmHg 57%
    18:00 +24°C° 0 mm 7 mps 755 mmHg 60%
    19:00 +23°C° 0 mm 6 mps 755 mmHg 62%
    20:00 +22°C° 0 mm 5 mps 755 mmHg 65%
    21:00 +22°C° 0 mm 5 mps 755 mmHg 65%
    22:00 +22°C° 0 mm 4 mps 755 mmHg 66%
    23:00 +22°C° 0 mm 3 mps 756 mmHg 66%

    17 November, Sunday

    Time Temperature Precipitation Wind Pressure Humidity
    00:00 +21°C° 0 mm 3 mps 755 mmHg 68%
    01:00 +20°C° 0 mm 2 mps 755 mmHg 70%
    02:00 +20°C° 0 mm 2 mps 755 mmHg 72%
    03:00 +19°C° 0 mm 2 mps 755 mmHg 72%
    04:00 +19°C° 0 mm 2 mps 756 mmHg 73%
    05:00 +19°C° 0 mm 2 mps 756 mmHg 73%
    06:00 +21°C° 0 mm 3 mps 756 mmHg 67%
    07:00 +24°C° 0 mm 3 mps 757 mmHg 61%
    08:00 +26°C° 0 mm 3 mps 757 mmHg 55%
    09:00 +27°C° 0 mm 4 mps 757 mmHg 50%
    10:00 +29°C° 0 mm 4 mps 757 mmHg 44%
    11:00 +32°C° 0 mm 4 mps 757 mmHg 39%
    12:00 +33°C° 0 mm 4 mps 756 mmHg 37%
    13:00 +34°C° 0 mm 4 mps 756 mmHg 35%
    14:00 +35°C° 0 mm 4 mps 755 mmHg 33%
    15:00 +35°C° 0 mm 4 mps 755 mmHg 36%
    16:00 +34°C° 0 mm 4 mps 755 mmHg 38%
    17:00 +34°C° 0 mm 5 mps 754 mmHg 40%
    18:00 +32°C° 0 mm 4 mps 754 mmHg 46%
    19:00 +29°C° 0 mm 4 mps 755 mmHg 51%
    20:00 +27°C° 0 mm 4 mps 755 mmHg 57%
    21:00 +26°C° 0 mm 4 mps 755 mmHg 60%
    22:00 +25°C° 0 mm 4 mps 755 mmHg 62%
    23:00 +23°C° 0 mm 4 mps 755 mmHg 65%

    18 November, Monday

    Time Temperature Precipitation Wind Pressure Humidity
    00:00 +23°C° 0 mm 4 mps 755 mmHg 68%
    01:00 +22°C° 0 mm 3 mps 755 mmHg 70%
    02:00 +21°C° 0 mm 3 mps 755 mmHg 73%
    03:00 +20°C° 0 mm 3 mps 755 mmHg 75%
    04:00 +20°C° 0 mm 3 mps 756 mmHg 77%
    05:00 +19°C° 0 mm 3 mps 756 mmHg 78%
    06:00 +21°C° 0 mm 3 mps 757 mmHg 70%
    07:00 +25°C° 0 mm 3 mps 757 mmHg 61%
    08:00 +27°C° 0 mm 4 mps 758 mmHg 52%
    09:00 +29°C° 0 mm 4 mps 758 mmHg 47%
    10:00 +32°C° 0 mm 4 mps 758 mmHg 41%
    11:00 +34°C° 0 mm 4 mps 758 mmHg 36%
    12:00 +34°C° 0 mm 4 mps 757 mmHg 34%
    13:00 +35°C° 0 mm 4 mps 757 mmHg 32%
    14:00 +36°C° 0 mm 4 mps 756 mmHg 30%
    15:00 +35°C° 0 mm 4 mps 756 mmHg 33%
    16:00 +34°C° 0 mm 5 mps 756 mmHg 35%
    17:00 +34°C° 0 mm 5 mps 755 mmHg 38%
    18:00 +32°C° 0 mm 4 mps 756 mmHg 42%
    19:00 +29°C° 0 mm 4 mps 756 mmHg 47%
    20:00 +27°C° 0 mm 4 mps 756 mmHg 52%
    21:00 +26°C° 0 mm 3 mps 757 mmHg 55%
    22:00 +25°C° 0 mm 3 mps 757 mmHg 59%
    23:00 +24°C° 0 mm 3 mps 757 mmHg 62%

    19 November, Tuesday

    Time Temperature Precipitation Wind Pressure Humidity
    00:00 +22°C° 0 mm 3 mps 757 mmHg 66%
    01:00 +21°C° 0 mm 2 mps 757 mmHg 70%
    02:00 +21°C° 0 mm 2 mps 757 mmHg 74%
    03:00 +20°C° 0 mm 2 mps 757 mmHg 74%
    04:00 +20°C° 0 mm 2 mps 757 mmHg 75%
    05:00 +20°C° 0 mm 2 mps 757 mmHg 76%
    06:00 +22°C° 0 mm 3 mps 758 mmHg 68%
    07:00 +25°C° 0 mm 3 mps 758 mmHg 60%
    08:00 +27°C° 0 mm 3 mps 758 mmHg 53%
    09:00 +29°C° 0 mm 3 mps 758 mmHg 47%
    10:00 +32°C° 0 mm 4 mps 757 mmHg 41%
    11:00 +34°C° 0 mm 4 mps 757 mmHg 35%
    12:00 +35°C° 0 mm 4 mps 756 mmHg 33%
    13:00 +36°C° 0 mm 4 mps 755 mmHg 31%
    14:00 +37°C° 0 mm 4 mps 755 mmHg 30%
    15:00 +37°C° 0 mm 4 mps 754 mmHg 32%
    16:00 +36°C° 0 mm 4 mps 754 mmHg 34%
    17:00 +35°C° 0 mm 4 mps 753 mmHg 36%
    18:00 +33°C° 0 mm 4 mps 753 mmHg 42%
    19:00 +30°C° 0 mm 4 mps 753 mmHg 48%
    20:00 +28°C° 0 mm 4 mps 754 mmHg 54%
    21:00 +27°C° 0 mm 4 mps 754 mmHg 56%
    22:00 +26°C° 0 mm 4 mps 754 mmHg 57%
    23:00 +25°C° 0 mm 4 mps 754 mmHg 58%
    Show more